Location: St. Louis
(38.6270°N, 90.1994°W)
Time: 11:07:16
(UTC-06:00)

Altair - Pass Details

Date: 08 December 2021
Orbit: 1501 x 1683 km, 47.2° (Epoch: 25 January)

Event Time Altitude Azimuth Distance (km) Brightness Sun altitude
Rises 19:44:36 0° 299° (WNW) 4,693 10.8 -35.4°
Reaches altitude 10° 19:47:40 10° 300° (WNW) 3,692 10.1 -36.0°
Enters shadow 19:56:09 77° 318° (NW) 1,540 7.3 -37.6°
Maximum altitude 19:56:59 86° 31° (NNE) 1,509 - -37.8°
Drops below altitude 10° 20:06:10 10° 120° (ESE) 3,650 - -39.6°
Sets 20:09:11 0° 121° (ESE) 4,637 - -40.2°
